Time,TemperatureF,DewpointF,PressureIn,WindDirection,WindDirectionDegrees,WindSpeedMPH,WindSpeedGustMPH,Humidity,HourlyPrecipIn,Conditions,Clouds,dailyrainin,SoftwareType,DateUTC
2013-09-13 00:01:00,66.6,50.0,17.72,North,0,0.0,0.0,56,0.00,,,0.00,WUHU216WMR968SP,2013-09-13 04:01:00,
2013-09-13 00:06:00,66.4,50.0,17.72,North,0,0.0,0.0,56,0.00,,,0.00,WUHU216WMR968SP,2013-09-13 04:06:00,
2013-09-13 00:11:00,66.4,50.0,17.72,North,0,0.0,0.0,56,0.00,,,0.00,WUHU216WMR968SP,2013-09-13 04:11:00,
2013-09-13 00:16:00,66.4,50.0,17.72,North,0,0.0,0.0,56,0.00,,,0.00,WUHU216WMR968SP,2013-09-13 04:16:00,
2013-09-13 00:21:00,66.4,50.0,17.72,North,0,0.0,0.0,56,0.00,,,0.00,WUHU216WMR968SP,2013-09-13 04:21:00,
2013-09-13 00:26:00,66.4,50.0,17.72,North,0,0.0,0.0,56,0.00,,,0.00,WUHU216WMR968SP,2013-09-13 04:26:00,
2013-09-13 00:31:00,66.4,50.0,17.72,North,0,0.0,0.0,56,0.00,,,0.00,WUHU216WMR968SP,2013-09-13 04:31:00,
2013-09-13 00:36:00,66.4,50.0,17.72,North,0,0.0,0.0,56,0.00,,,0.00,WUHU216WMR968SP,2013-09-13 04:36:00,
2013-09-13 00:41:00,66.2,50.0,17.72,SW,235,0.0,0.0,56,0.00,,,0.00,WUHU216WMR968SP,2013-09-13 04:41:00,
2013-09-13 00:46:00,66.2,50.0,17.72,SW,235,0.0,0.0,56,0.00,,,0.00,WUHU216WMR968SP,2013-09-13 04:46:00,
2013-09-13 00:51:00,66.2,50.0,17.72,SW,235,0.0,0.0,56,0.00,,,0.00,WUHU216WMR968SP,2013-09-13 04:51:00,
2013-09-13 00:56:00,66.2,50.0,17.72,SW,235,0.0,0.0,56,0.00,,,0.00,WUHU216WMR968SP,2013-09-13 04:56:00,
2013-09-13 01:01:00,66.2,50.0,17.72,SW,235,0.0,0.0,56,0.00,,,0.00,WUHU216WMR968SP,2013-09-13 05:01:00,
2013-09-13 01:06:00,66.2,50.0,17.72,ENE,72,0.0,0.0,56,0.00,,,0.00,WUHU216WMR968SP,2013-09-13 05:06:00,
2013-09-13 01:11:00,66.2,50.0,17.72,East,81,0.0,0.0,56,0.00,,,0.00,WUHU216WMR968SP,2013-09-13 05:11:00,
2013-09-13 01:16:00,66.2,50.0,17.72,East,81,0.0,0.0,56,0.00,,,0.00,WUHU216WMR968SP,2013-09-13 05:16:00,
2013-09-13 01:21:00,66.2,50.0,17.72,East,81,0.0,0.0,56,0.00,,,0.00,WUHU216WMR968SP,2013-09-13 05:21:00,
2013-09-13 01:26:00,66.2,50.0,17.72,East,81,0.0,0.0,56,0.00,,,0.00,WUHU216WMR968SP,2013-09-13 05:26:00,
2013-09-13 01:31:00,66.0,50.0,17.72,East,81,0.0,0.0,57,0.00,,,0.00,WUHU216WMR968SP,2013-09-13 05:31:00,
2013-09-13 01:36:00,66.0,50.0,17.72,East,81,0.0,0.0,57,0.00,,,0.00,WUHU216WMR968SP,2013-09-13 05:36:00,
2013-09-13 01:41:00,66.0,50.0,17.72,East,81,0.0,0.0,57,0.00,,,0.00,WUHU216WMR968SP,2013-09-13 05:41:00,
2013-09-13 01:46:00,65.8,50.0,17.72,East,81,0.0,0.0,57,0.00,,,0.00,WUHU216WMR968SP,2013-09-13 05:46:00,
2013-09-13 01:51:00,65.8,50.0,17.72,East,81,0.0,0.0,57,0.00,,,0.00,WUHU216WMR968SP,2013-09-13 05:51:00,
2013-09-13 01:57:00,66.0,50.0,17.72,East,81,0.0,0.0,57,0.00,,,0.00,WUHU216WMR968SP,2013-09-13 05:57:00,
2013-09-13 02:02:00,65.8,50.0,17.72,East,81,0.0,0.0,57,0.00,,,0.00,WUHU216WMR968SP,2013-09-13 06:02:00,
2013-09-13 02:07:00,65.7,50.0,17.72,East,81,0.0,0.0,57,0.00,,,0.00,WUHU216WMR968SP,2013-09-13 06:07:00,
2013-09-13 02:12:00,65.7,50.0,17.72,East,81,0.0,0.0,57,0.00,,,0.00,WUHU216WMR968SP,2013-09-13 06:12:00,
2013-09-13 02:17:00,65.7,50.0,17.72,East,81,0.0,0.0,57,0.00,,,0.00,WUHU216WMR968SP,2013-09-13 06:17:00,
2013-09-13 02:22:00,65.7,50.0,17.72,East,81,0.0,0.0,57,0.00,,,0.00,WUHU216WMR968SP,2013-09-13 06:22:00,
2013-09-13 02:27:00,65.7,50.0,17.72,East,81,0.0,0.0,57,0.00,,,0.00,WUHU216WMR968SP,2013-09-13 06:27:00,
2013-09-13 02:32:00,65.7,50.0,17.72,East,81,0.0,0.0,57,0.00,,,0.00,WUHU216WMR968SP,2013-09-13 06:32:00,
2013-09-13 02:37:00,65.8,50.0,17.72,East,81,0.0,0.0,57,0.00,,,0.00,WUHU216WMR968SP,2013-09-13 06:37:00,
2013-09-13 02:42:00,65.8,50.0,17.72,East,81,0.0,0.0,57,0.00,,,0.00,WUHU216WMR968SP,2013-09-13 06:42:00,
2013-09-13 02:47:00,65.8,50.0,17.72,East,81,0.0,0.0,57,0.00,,,0.00,WUHU216WMR968SP,2013-09-13 06:47:00,
2013-09-13 02:52:00,65.7,50.0,17.72,East,81,0.0,0.0,57,0.00,,,0.00,WUHU216WMR968SP,2013-09-13 06:52:00,
2013-09-13 02:57:00,65.7,50.0,17.72,East,81,0.0,0.0,57,0.00,,,0.00,WUHU216WMR968SP,2013-09-13 06:57:00,
2013-09-13 03:02:00,65.8,50.0,17.72,East,81,0.0,0.0,57,0.00,,,0.00,WUHU216WMR968SP,2013-09-13 07:02:00,
2013-09-13 03:07:00,65.8,50.0,17.72,East,81,0.0,0.0,57,0.00,,,0.00,WUHU216WMR968SP,2013-09-13 07:07:00,
2013-09-13 03:12:00,65.8,50.0,17.72,East,81,0.0,0.0,57,0.00,,,0.00,WUHU216WMR968SP,2013-09-13 07:12:00,
2013-09-13 03:16:00,65.7,50.0,17.72,WSW,239,0.0,0.0,57,0.00,,,0.00,WUHU216WMR968SP,2013-09-13 07:16:00,
2013-09-13 03:21:00,65.8,50.0,17.72,WSW,239,0.0,0.0,57,0.00,,,0.00,WUHU216WMR968SP,2013-09-13 07:21:00,
2013-09-13 03:26:00,65.8,50.0,17.72,WSW,239,0.0,0.0,57,0.00,,,0.00,WUHU216WMR968SP,2013-09-13 07:26:00,
2013-09-13 03:31:00,65.8,50.0,17.72,WSW,239,0.0,0.0,57,0.00,,,0.00,WUHU216WMR968SP,2013-09-13 07:31:00,
2013-09-13 03:36:00,65.8,50.0,17.72,WSW,239,0.0,0.0,57,0.00,,,0.00,WUHU216WMR968SP,2013-09-13 07:36:00,
2013-09-13 03:41:00,65.7,50.0,17.72,South,186,0.0,0.0,57,0.00,,,0.00,WUHU216WMR968SP,2013-09-13 07:41:00,
2013-09-13 03:46:00,65.8,50.0,17.72,South,186,0.0,0.0,57,0.00,,,0.00,WUHU216WMR968SP,2013-09-13 07:46:00,
2013-09-13 03:51:00,65.8,50.0,17.72,South,186,0.0,0.0,57,0.00,,,0.00,WUHU216WMR968SP,2013-09-13 07:51:00,
2013-09-13 03:56:00,65.8,50.0,17.72,South,186,0.0,0.0,57,0.00,,,0.00,WUHU216WMR968SP,2013-09-13 07:56:00,
2013-09-13 04:01:00,65.8,50.0,17.72,South,186,0.0,0.0,57,0.00,,,0.00,WUHU216WMR968SP,2013-09-13 08:01:00,
2013-09-13 04:06:00,65.8,50.0,17.72,South,186,0.0,0.0,57,0.00,,,0.00,WUHU216WMR968SP,2013-09-13 08:06:00,
2013-09-13 04:11:00,65.8,50.0,17.72,South,186,0.0,0.0,57,0.00,,,0.00,WUHU216WMR968SP,2013-09-13 08:11:00,
2013-09-13 04:16:00,65.8,50.0,17.72,South,186,0.0,0.0,57,0.00,,,0.00,WUHU216WMR968SP,2013-09-13 08:16:00,
2013-09-13 04:21:00,66.0,50.0,17.72,South,186,0.0,0.0,57,0.00,,,0.00,WUHU216WMR968SP,2013-09-13 08:21:00,
2013-09-13 04:26:00,66.0,50.0,17.72,South,186,0.0,0.0,57,0.00,,,0.00,WUHU216WMR968SP,2013-09-13 08:26:00,
2013-09-13 04:31:00,66.0,50.0,17.72,South,186,0.0,0.0,57,0.00,,,0.00,WUHU216WMR968SP,2013-09-13 08:31:00,
2013-09-13 04:36:00,65.8,50.0,17.72,South,186,0.0,0.0,57,0.00,,,0.00,WUHU216WMR968SP,2013-09-13 08:36:00,
2013-09-13 04:41:00,65.8,50.0,17.72,South,186,0.0,0.0,57,0.00,,,0.00,WUHU216WMR968SP,2013-09-13 08:41:00,
2013-09-13 04:46:00,65.8,50.0,17.72,South,186,0.0,0.0,57,0.00,,,0.00,WUHU216WMR968SP,2013-09-13 08:46:00,
2013-09-13 04:51:00,65.8,50.0,17.72,South,186,0.0,0.0,57,0.00,,,0.00,WUHU216WMR968SP,2013-09-13 08:51:00,
2013-09-13 04:56:00,65.8,50.0,17.72,South,186,0.0,0.0,57,0.00,,,0.00,WUHU216WMR968SP,2013-09-13 08:56:00,
2013-09-13 05:01:00,65.8,50.0,17.72,South,186,0.0,0.0,57,0.00,,,0.00,WUHU216WMR968SP,2013-09-13 09:01:00,
2013-09-13 05:06:00,65.7,50.0,17.72,South,186,0.0,0.0,57,0.00,,,0.00,WUHU216WMR968SP,2013-09-13 09:06:00,
2013-09-13 05:11:00,65.7,50.0,17.72,South,186,0.0,0.0,57,0.00,,,0.00,WUHU216WMR968SP,2013-09-13 09:11:00,
2013-09-13 05:16:00,65.7,50.0,17.72,South,186,0.0,0.0,57,0.00,,,0.00,WUHU216WMR968SP,2013-09-13 09:16:00,
2013-09-13 05:21:00,65.5,50.0,17.72,South,186,0.0,0.0,57,0.00,,,0.00,WUHU216WMR968SP,2013-09-13 09:21:00,
2013-09-13 05:26:00,65.3,50.0,17.72,South,186,0.0,0.0,57,0.00,,,0.00,WUHU216WMR968SP,2013-09-13 09:26:00,
2013-09-13 05:31:00,65.1,48.2,17.72,South,186,0.0,0.0,57,0.00,,,0.00,WUHU216WMR968SP,2013-09-13 09:31:00,
2013-09-13 05:36:00,65.1,48.2,17.72,South,186,0.0,0.0,57,0.00,,,0.00,WUHU216WMR968SP,2013-09-13 09:36:00,
2013-09-13 05:41:00,65.3,50.0,17.72,South,186,0.0,0.0,57,0.00,,,0.00,WUHU216WMR968SP,2013-09-13 09:41:00,
2013-09-13 05:46:00,65.5,50.0,17.72,South,186,0.0,0.0,57,0.00,,,0.00,WUHU216WMR968SP,2013-09-13 09:46:00,
2013-09-13 05:51:00,65.5,50.0,17.72,South,186,0.0,0.0,57,0.00,,,0.00,WUHU216WMR968SP,2013-09-13 09:51:00,
2013-09-13 05:56:00,65.5,50.0,17.72,South,186,0.0,0.0,57,0.00,,,0.00,WUHU216WMR968SP,2013-09-13 09:56:00,
2013-09-13 06:01:00,65.5,50.0,17.72,South,186,0.0,0.0,57,0.00,,,0.00,WUHU216WMR968SP,2013-09-13 10:01:00,
2013-09-13 06:06:00,65.5,50.0,17.72,South,186,0.0,0.0,57,0.00,,,0.00,WUHU216WMR968SP,2013-09-13 10:06:00,
2013-09-13 06:11:00,65.5,50.0,17.72,South,186,0.0,0.0,57,0.00,,,0.00,WUHU216WMR968SP,2013-09-13 10:11:00,
2013-09-13 06:16:00,65.3,50.0,17.72,South,186,0.0,0.0,57,0.00,,,0.00,WUHU216WMR968SP,2013-09-13 10:16:00,
2013-09-13 06:21:00,65.3,50.0,17.72,South,186,0.0,0.0,57,0.00,,,0.00,WUHU216WMR968SP,2013-09-13 10:21:00,
2013-09-13 06:26:00,65.5,50.0,17.72,South,186,0.0,0.0,57,0.00,,,0.00,WUHU216WMR968SP,2013-09-13 10:26:00,
2013-09-13 06:31:00,65.5,50.0,17.72,South,186,0.0,0.0,57,0.00,,,0.00,WUHU216WMR968SP,2013-09-13 10:31:00,
2013-09-13 06:36:00,65.5,50.0,17.72,South,186,0.0,0.0,57,0.00,,,0.00,WUHU216WMR968SP,2013-09-13 10:36:00,
2013-09-13 06:41:00,65.3,50.0,17.72,South,186,0.0,0.0,57,0.00,,,0.00,WUHU216WMR968SP,2013-09-13 10:41:00,
2013-09-13 06:46:00,65.3,50.0,17.72,SSW,196,0.0,0.0,57,0.00,,,0.00,WUHU216WMR968SP,2013-09-13 10:46:00,
2013-09-13 06:51:00,65.1,48.2,17.72,SSW,196,0.0,0.0,57,0.00,,,0.00,WUHU216WMR968SP,2013-09-13 10:51:00,
2013-09-13 06:56:00,65.3,50.0,17.72,South,176,0.0,0.0,57,0.00,,,0.00,WUHU216WMR968SP,2013-09-13 10:56:00,
2013-09-13 07:01:00,65.1,48.2,17.72,South,176,0.0,0.0,57,0.00,,,0.00,WUHU216WMR968SP,2013-09-13 11:01:00,
2013-09-13 07:06:00,65.1,48.2,17.72,SE,136,0.0,0.0,57,0.00,,,0.00,WUHU216WMR968SP,2013-09-13 11:06:00,
2013-09-13 07:11:00,64.8,48.2,17.72,ENE,78,0.0,3.1,57,0.00,,,0.00,WUHU216WMR968SP,2013-09-13 11:11:00,
2013-09-13 07:16:00,64.6,48.2,17.72,South,176,0.0,3.1,57,0.00,,,0.00,WUHU216WMR968SP,2013-09-13 11:16:00,
2013-09-13 07:21:00,64.2,48.2,17.72,SSE,165,0.0,0.0,57,0.00,,,0.00,WUHU216WMR968SP,2013-09-13 11:21:00,
2013-09-13 07:26:00,64.2,48.2,17.72,SSE,163,0.0,0.0,57,0.00,,,0.00,WUHU216WMR968SP,2013-09-13 11:26:00,
2013-09-13 07:31:00,64.2,48.2,17.72,ENE,72,0.0,0.0,57,0.00,,,0.00,WUHU216WMR968SP,2013-09-13 11:31:00,
2013-09-13 07:36:00,64.2,48.2,17.72,ENE,72,0.0,0.0,57,0.00,,,0.00,WUHU216WMR968SP,2013-09-13 11:36:00,
2013-09-13 07:41:00,64.4,48.2,17.72,ENE,72,0.0,0.0,57,0.00,,,0.00,WUHU216WMR968SP,2013-09-13 11:41:00,
2013-09-13 07:46:00,64.6,48.2,17.72,North,10,0.0,0.0,57,0.00,,,0.00,WUHU216WMR968SP,2013-09-13 11:46:00,
2013-09-13 07:51:00,64.4,48.2,17.72,North,10,0.0,0.0,57,0.00,,,0.00,WUHU216WMR968SP,2013-09-13 11:51:00,
2013-09-13 07:56:00,64.4,48.2,17.72,North,10,0.0,0.0,57,0.00,,,0.00,WUHU216WMR968SP,2013-09-13 11:56:00,
2013-09-13 08:01:00,64.4,48.2,17.72,North,10,0.0,0.0,57,0.00,,,0.00,WUHU216WMR968SP,2013-09-13 12:01:00,
2013-09-13 08:06:00,64.6,48.2,17.72,North,10,0.0,0.0,57,0.00,,,0.00,WUHU216WMR968SP,2013-09-13 12:06:00,
2013-09-13 08:11:00,64.8,48.2,17.72,North,10,0.0,0.0,57,0.00,,,0.00,WUHU216WMR968SP,2013-09-13 12:11:00,
2013-09-13 08:16:00,64.9,48.2,17.72,North,10,0.0,0.0,57,0.00,,,0.00,WUHU216WMR968SP,2013-09-13 12:16:00,
2013-09-13 08:21:00,65.5,50.0,17.72,North,10,0.0,0.0,57,0.00,,,0.00,WUHU216WMR968SP,2013-09-13 12:21:00,
2013-09-13 08:26:00,65.7,50.0,17.72,NNE,22,0.0,0.0,57,0.00,,,0.00,WUHU216WMR968SP,2013-09-13 12:26:00,
2013-09-13 08:31:00,66.0,50.0,17.72,SSE,157,0.0,0.0,57,0.00,,,0.00,WUHU216WMR968SP,2013-09-13 12:31:00,
2013-09-13 08:36:00,66.4,50.0,17.72,SSE,152,0.0,0.0,56,0.00,,,0.00,WUHU216WMR968SP,2013-09-13 12:36:00,
2013-09-13 08:41:00,66.6,50.0,17.72,SSE,152,0.0,0.0,56,0.00,,,0.00,WUHU216WMR968SP,2013-09-13 12:41:00,
2013-09-13 08:46:00,66.7,50.0,17.72,SSE,152,0.0,0.0,56,0.00,,,0.00,WUHU216WMR968SP,2013-09-13 12:46:00,
2013-09-13 08:51:00,66.7,50.0,17.72,SSE,152,0.0,0.0,56,0.00,,,0.00,WUHU216WMR968SP,2013-09-13 12:51:00,
2013-09-13 08:56:00,66.7,50.0,17.72,SSE,152,0.0,0.0,56,0.00,,,0.00,WUHU216WMR968SP,2013-09-13 12:56:00,
2013-09-13 09:01:00,66.7,50.0,17.72,SSE,152,0.0,0.0,56,0.00,,,0.00,WUHU216WMR968SP,2013-09-13 13:01:00,
2013-09-13 09:06:00,67.1,51.8,17.72,SSE,152,0.0,0.0,56,0.00,,,0.00,WUHU216WMR968SP,2013-09-13 13:06:00,
2013-09-13 09:11:00,68.0,51.8,17.72,NE,41,0.0,0.0,56,0.00,,,0.00,WUHU216WMR968SP,2013-09-13 13:11:00,
2013-09-13 09:16:00,68.4,51.8,17.72,East,80,0.0,0.0,56,0.00,,,0.00,WUHU216WMR968SP,2013-09-13 13:16:00,
2013-09-13 09:21:00,68.0,51.8,17.72,East,80,0.0,0.0,56,0.00,,,0.00,WUHU216WMR968SP,2013-09-13 13:21:00,
2013-09-13 09:26:00,68.5,51.8,17.72,ESE,119,0.0,0.0,56,0.00,,,0.00,WUHU216WMR968SP,2013-09-13 13:26:00,
2013-09-13 09:31:00,68.9,53.6,17.72,SSE,155,0.0,0.0,56,0.00,,,0.00,WUHU216WMR968SP,2013-09-13 13:31:00,
2013-09-13 09:36:00,69.1,53.6,17.72,SSE,168,0.0,0.0,56,0.00,,,0.00,WUHU216WMR968SP,2013-09-13 13:36:00,
2013-09-13 09:41:00,69.1,53.6,17.72,SSW,208,0.0,2.7,56,0.00,,,0.00,WUHU216WMR968SP,2013-09-13 13:41:00,
2013-09-13 09:46:00,69.1,53.6,17.72,SE,128,0.0,3.1,55,0.00,,,0.00,WUHU216WMR968SP,2013-09-13 13:46:00,
2013-09-13 09:51:00,68.9,53.6,17.72,WSW,240,2.2,4.0,55,0.00,,,0.00,WUHU216WMR968SP,2013-09-13 13:51:00,
2013-09-13 09:56:00,69.3,51.8,17.72,South,179,0.0,4.0,53,0.00,,,0.00,WUHU216WMR968SP,2013-09-13 13:56:00,
2013-09-13 10:01:00,69.4,50.0,17.72,SSE,160,0.0,2.2,51,0.00,,,0.00,WUHU216WMR968SP,2013-09-13 14:01:00,
2013-09-13 10:06:00,69.6,50.0,17.72,SSW,201,0.0,3.6,50,0.00,,,0.00,WUHU216WMR968SP,2013-09-13 14:06:00,
2013-09-13 10:11:00,69.4,48.2,17.72,WSW,241,2.2,4.0,46,0.00,,,0.00,WUHU216WMR968SP,2013-09-13 14:11:00,
2013-09-13 10:16:00,70.3,50.0,17.72,ENE,68,0.0,4.0,48,0.00,,,0.00,WUHU216WMR968SP,2013-09-13 14:16:00,
2013-09-13 10:21:00,70.9,50.0,17.72,SSE,160,0.0,0.0,47,0.00,,,0.00,WUHU216WMR968SP,2013-09-13 14:21:00,
2013-09-13 10:26:00,71.2,50.0,17.72,SSE,149,0.0,0.0,45,0.00,,,0.00,WUHU216WMR968SP,2013-09-13 14:26:00,
2013-09-13 10:31:00,72.1,50.0,17.72,SSE,163,0.0,3.6,46,0.00,,,0.00,WUHU216WMR968SP,2013-09-13 14:31:00,
2013-09-13 10:36:00,72.1,48.2,17.72,SSE,151,0.0,5.4,44,0.00,,,0.00,WUHU216WMR968SP,2013-09-13 14:36:00,
2013-09-13 10:41:00,72.1,46.4,17.72,WSW,242,0.0,6.3,41,0.00,,,0.00,WUHU216WMR968SP,2013-09-13 14:41:00,
2013-09-13 10:46:00,72.5,48.2,17.72,SW,231,3.1,6.3,42,0.00,,,0.00,WUHU216WMR968SP,2013-09-13 14:46:00,
2013-09-13 10:51:00,72.5,46.4,17.72,NNE,12,2.2,7.6,39,0.00,,,0.00,WUHU216WMR968SP,2013-09-13 14:51:00,
2013-09-13 10:56:00,72.5,48.2,17.72,SSW,209,2.2,7.6,40,0.00,,,0.00,WUHU216WMR968SP,2013-09-13 14:56:00,
2013-09-13 11:01:00,72.1,46.4,17.72,SW,220,0.0,5.8,41,0.00,,,0.00,WUHU216WMR968SP,2013-09-13 15:01:00,
2013-09-13 11:06:00,72.1,48.2,17.72,NE,43,0.0,5.8,42,0.00,,,0.00,WUHU216WMR968SP,2013-09-13 15:06:00,
2013-09-13 11:11:00,72.7,48.2,17.72,East,99,0.0,3.6,41,0.00,,,0.00,WUHU216WMR968SP,2013-09-13 15:11:00,
2013-09-13 11:16:00,72.9,46.4,17.72,SSE,150,0.0,3.1,38,0.00,,,0.00,WUHU216WMR968SP,2013-09-13 15:16:00,
2013-09-13 11:21:00,73.2,48.2,17.72,SE,131,0.0,3.6,40,0.00,,,0.00,WUHU216WMR968SP,2013-09-13 15:21:00,
2013-09-13 11:26:00,73.2,48.2,17.72,SE,126,0.0,3.6,40,0.00,,,0.00,WUHU216WMR968SP,2013-09-13 15:26:00,
2013-09-13 11:31:00,74.1,48.2,17.72,North,2,0.0,2.7,40,0.00,,,0.00,WUHU216WMR968SP,2013-09-13 15:31:00,
2013-09-13 11:36:00,74.3,46.4,17.72,SSE,165,2.2,5.4,36,0.00,,,0.00,WUHU216WMR968SP,2013-09-13 15:36:00,
2013-09-13 11:41:00,74.5,44.6,17.72,SSE,159,3.1,5.4,33,0.00,,,0.00,WUHU216WMR968SP,2013-09-13 15:41:00,
2013-09-13 11:46:00,74.3,46.4,17.72,East,88,0.0,5.4,36,0.00,,,0.00,WUHU216WMR968SP,2013-09-13 15:46:00,
2013-09-13 11:51:00,74.1,44.6,17.72,NE,42,0.0,5.4,35,0.00,,,0.00,WUHU216WMR968SP,2013-09-13 15:51:00,
2013-09-13 11:56:00,73.8,44.6,17.72,ESE,117,3.6,5.4,35,0.00,,,0.00,WUHU216WMR968SP,2013-09-13 15:56:00,
2013-09-13 12:01:00,73.2,44.6,17.72,South,174,2.7,5.4,36,0.00,,,0.00,WUHU216WMR968SP,2013-09-13 16:01:00,
2013-09-13 12:06:00,73.4,46.4,17.72,ESE,107,2.2,8.1,37,0.00,,,0.00,WUHU216WMR968SP,2013-09-13 16:06:00,
2013-09-13 12:11:00,73.4,46.4,17.72,WSW,252,0.0,8.1,39,0.00,,,0.00,WUHU216WMR968SP,2013-09-13 16:11:00,
2013-09-13 12:16:00,73.4,46.4,17.72,East,91,2.7,5.8,38,0.00,,,0.00,WUHU216WMR968SP,2013-09-13 16:16:00,
2013-09-13 12:21:00,73.8,44.6,17.72,NNE,12,2.7,5.8,36,0.00,,,0.00,WUHU216WMR968SP,2013-09-13 16:21:00,
2013-09-13 12:26:00,73.2,42.8,17.72,WSW,238,3.6,11.0,33,0.00,,,0.00,WUHU216WMR968SP,2013-09-13 16:26:00,
2013-09-13 12:31:00,72.1,42.8,17.72,ENE,67,0.0,11.0,36,0.00,,,0.00,WUHU216WMR968SP,2013-09-13 16:31:00,
2013-09-13 12:36:00,72.0,42.8,17.72,WSW,254,4.0,7.2,35,0.00,,,0.00,WUHU216WMR968SP,2013-09-13 16:36:00,
2013-09-13 12:41:00,72.1,42.8,17.72,SW,235,2.2,10.5,36,0.00,,,0.00,WUHU216WMR968SP,2013-09-13 16:41:00,
2013-09-13 12:46:00,71.6,42.8,17.72,SSE,147,3.1,10.5,36,0.00,,,0.00,WUHU216WMR968SP,2013-09-13 16:46:00,
2013-09-13 12:51:00,71.1,44.6,17.72,East,85,5.4,6.3,37,0.00,,,0.00,WUHU216WMR968SP,2013-09-13 16:51:00,
2013-09-13 12:56:00,71.4,44.6,17.72,South,173,3.1,6.3,38,0.00,,,0.00,WUHU216WMR968SP,2013-09-13 16:56:00,
2013-09-13 13:01:00,72.5,46.4,17.72,South,180,0.0,6.3,37,0.00,,,0.00,WUHU216WMR968SP,2013-09-13 17:01:00,
2013-09-13 13:06:00,72.5,42.8,17.72,NW,306,2.7,5.8,34,0.00,,,0.00,WUHU216WMR968SP,2013-09-13 17:06:00,
2013-09-13 13:11:00,72.1,42.8,17.72,North,353,2.2,8.1,35,0.00,,,0.00,WUHU216WMR968SP,2013-09-13 17:11:00,
2013-09-13 13:16:00,71.4,42.8,17.72,WSW,253,0.0,8.1,36,0.00,,,0.00,WUHU216WMR968SP,2013-09-13 17:16:00,
2013-09-13 13:21:00,70.3,41.0,17.72,WSW,237,3.1,5.8,36,0.00,,,0.00,WUHU216WMR968SP,2013-09-13 17:21:00,
2013-09-13 13:26:00,69.4,44.6,17.72,SW,220,2.2,7.2,39,0.00,,,0.00,WUHU216WMR968SP,2013-09-13 17:26:00,
2013-09-13 13:31:00,69.1,46.4,17.72,NNE,27,0.0,7.2,42,0.00,,,0.00,WUHU216WMR968SP,2013-09-13 17:31:00,
2013-09-13 13:36:00,69.1,46.4,17.72,SSE,148,0.0,6.3,42,0.00,,,0.00,WUHU216WMR968SP,2013-09-13 17:36:00,
2013-09-13 13:41:00,68.7,42.8,17.72,East,80,2.7,6.3,40,0.00,,,0.00,WUHU216WMR968SP,2013-09-13 17:41:00,
2013-09-13 13:46:00,68.4,44.6,17.72,SSE,152,0.0,6.3,42,0.00,,,0.00,WUHU216WMR968SP,2013-09-13 17:46:00,
2013-09-13 13:51:00,67.8,44.6,17.72,South,188,0.0,6.3,43,0.00,,,0.00,WUHU216WMR968SP,2013-09-13 17:51:00,
2013-09-13 13:56:00,66.6,42.8,17.72,East,95,2.7,6.3,44,0.00,,,0.00,WUHU216WMR968SP,2013-09-13 17:56:00,
2013-09-13 14:01:00,64.6,44.6,17.72,East,101,3.1,6.3,50,0.00,,,0.00,WUHU216WMR968SP,2013-09-13 18:01:00,
2013-09-13 14:06:00,63.3,44.6,17.72,East,83,3.6,5.8,53,0.00,,,0.00,WUHU216WMR968SP,2013-09-13 18:06:00,
2013-09-13 14:11:00,62.6,46.4,17.72,East,93,0.0,8.1,54,0.00,,,0.00,WUHU216WMR968SP,2013-09-13 18:11:00,
2013-09-13 14:16:00,62.2,46.4,17.72,NW,305,2.7,8.1,55,0.00,,,0.00,WUHU216WMR968SP,2013-09-13 18:16:00,
2013-09-13 14:21:00,62.2,46.4,17.72,SSW,208,0.0,5.8,56,0.00,,,0.00,WUHU216WMR968SP,2013-09-13 18:21:00,
2013-09-13 14:26:00,61.9,46.4,17.72,South,169,0.0,5.4,56,0.00,,,0.00,WUHU216WMR968SP,2013-09-13 18:26:00,
2013-09-13 14:31:00,62.2,46.4,17.72,South,189,3.1,5.4,56,0.00,,,0.00,WUHU216WMR968SP,2013-09-13 18:31:00,
2013-09-13 14:36:00,62.2,46.4,17.72,North,357,0.0,7.2,56,0.00,,,0.00,WUHU216WMR968SP,2013-09-13 18:36:00,
2013-09-13 14:41:00,62.6,46.4,17.72,NNE,20,0.0,7.2,56,0.00,,,0.00,WUHU216WMR968SP,2013-09-13 18:41:00,
2013-09-13 14:46:00,63.1,46.4,17.72,NNE,31,0.0,4.0,55,0.00,,,0.00,WUHU216WMR968SP,2013-09-13 18:46:00,
2013-09-13 14:51:00,63.9,48.2,17.72,North,1,0.0,6.3,55,0.00,,,0.00,WUHU216WMR968SP,2013-09-13 18:51:00,
2013-09-13 14:56:00,65.5,50.0,17.72,ENE,72,0.0,6.3,54,0.00,,,0.00,WUHU216WMR968SP,2013-09-13 18:56:00,
2013-09-13 15:01:00,66.4,48.2,17.72,ESE,122,0.0,5.4,53,0.00,,,0.00,WUHU216WMR968SP,2013-09-13 19:01:00,
2013-09-13 15:06:00,66.9,48.2,17.72,SE,136,0.0,7.2,51,0.00,,,0.00,WUHU216WMR968SP,2013-09-13 19:06:00,
2013-09-13 15:11:00,67.1,48.2,17.72,NNW,329,3.1,7.2,49,0.00,,,0.00,WUHU216WMR968SP,2013-09-13 19:11:00,
2013-09-13 15:16:00,67.1,48.2,17.72,East,88,0.0,5.4,49,0.00,,,0.00,WUHU216WMR968SP,2013-09-13 19:16:00,
2013-09-13 15:21:00,66.9,46.4,17.72,East,82,2.2,5.4,49,0.00,,,0.00,WUHU216WMR968SP,2013-09-13 19:21:00,
2013-09-13 15:26:00,66.6,46.4,17.72,NNE,25,3.1,5.4,48,0.00,,,0.00,WUHU216WMR968SP,2013-09-13 19:26:00,
2013-09-13 15:31:00,66.2,44.6,17.72,SSW,195,0.0,7.6,47,0.00,,,0.00,WUHU216WMR968SP,2013-09-13 19:31:00,
2013-09-13 15:36:00,66.0,46.4,17.72,East,92,0.0,7.6,48,0.00,,,0.00,WUHU216WMR968SP,2013-09-13 19:36:00,
2013-09-13 15:41:00,66.0,46.4,17.72,SE,145,2.7,5.8,49,0.00,,,0.00,WUHU216WMR968SP,2013-09-13 19:41:00,
2013-09-13 15:46:00,66.2,46.4,17.72,ENE,64,0.0,5.4,48,0.00,,,0.00,WUHU216WMR968SP,2013-09-13 19:46:00,
2013-09-13 15:51:00,66.2,44.6,17.72,NE,50,3.1,6.3,47,0.00,,,0.00,WUHU216WMR968SP,2013-09-13 19:51:00,
2013-09-13 15:56:00,66.4,44.6,17.72,East,91,0.0,6.3,47,0.00,,,0.00,WUHU216WMR968SP,2013-09-13 19:56:00,
2013-09-13 16:01:00,66.6,44.6,17.72,SW,218,0.0,5.8,46,0.00,,,0.00,WUHU216WMR968SP,2013-09-13 20:01:00,
2013-09-13 16:06:00,66.7,44.6,17.72,South,191,2.2,6.3,46,0.00,,,0.00,WUHU216WMR968SP,2013-09-13 20:06:00,
2013-09-13 16:11:00,66.7,44.6,17.72,ESE,108,0.0,6.3,45,0.00,,,0.00,WUHU216WMR968SP,2013-09-13 20:11:00,
2013-09-13 16:16:00,66.7,44.6,17.72,NNE,31,2.7,6.3,45,0.00,,,0.00,WUHU216WMR968SP,2013-09-13 20:16:00,
2013-09-13 16:21:00,66.7,44.6,17.72,NE,54,2.2,6.3,45,0.00,,,0.00,WUHU216WMR968SP,2013-09-13 20:21:00,
2013-09-13 16:26:00,66.7,42.8,17.72,NE,36,3.6,5.4,44,0.00,,,0.00,WUHU216WMR968SP,2013-09-13 20:26:00,
2013-09-13 16:31:00,66.4,42.8,17.72,West,270,2.2,5.4,43,0.00,,,0.00,WUHU216WMR968SP,2013-09-13 20:31:00,
2013-09-13 16:36:00,66.2,42.8,17.72,NE,51,2.2,5.8,44,0.00,,,0.00,WUHU216WMR968SP,2013-09-13 20:36:00,
2013-09-13 16:41:00,65.8,42.8,17.72,South,181,3.6,5.8,44,0.00,,,0.00,WUHU216WMR968SP,2013-09-13 20:41:00,
2013-09-13 16:46:00,65.8,44.6,17.72,SE,137,0.0,4.9,46,0.00,,,0.00,WUHU216WMR968SP,2013-09-13 20:46:00,
2013-09-13 16:51:00,65.7,44.6,17.72,SSW,210,0.0,4.0,45,0.00,,,0.00,WUHU216WMR968SP,2013-09-13 20:51:00,
2013-09-13 16:56:00,65.5,42.8,17.72,NE,52,0.0,4.0,44,0.00,,,0.00,WUHU216WMR968SP,2013-09-13 20:56:00,
2013-09-13 17:01:00,65.1,42.8,17.72,SE,145,0.0,4.0,45,0.00,,,0.00,WUHU216WMR968SP,2013-09-13 21:01:00,
2013-09-13 17:06:00,64.9,42.8,17.72,SSW,194,0.0,4.0,46,0.00,,,0.00,WUHU216WMR968SP,2013-09-13 21:06:00,
2013-09-13 17:11:00,64.4,42.8,17.72,ESE,122,0.0,6.3,46,0.00,,,0.00,WUHU216WMR968SP,2013-09-13 21:11:00,
2013-09-13 17:16:00,64.4,44.6,17.72,East,88,0.0,6.3,48,0.00,,,0.00,WUHU216WMR968SP,2013-09-13 21:16:00,
2013-09-13 17:21:00,64.0,42.8,17.72,ENE,62,0.0,4.0,47,0.00,,,0.00,WUHU216WMR968SP,2013-09-13 21:21:00,
2013-09-13 17:26:00,63.9,42.8,17.72,ESE,106,2.7,4.0,47,0.00,,,0.00,WUHU216WMR968SP,2013-09-13 21:26:00,
2013-09-13 17:31:00,63.5,42.8,17.72,West,261,0.0,5.8,47,0.00,,,0.00,WUHU216WMR968SP,2013-09-13 21:31:00,
2013-09-13 17:36:00,63.5,44.6,17.72,ENE,66,0.0,5.8,48,0.00,,,0.00,WUHU216WMR968SP,2013-09-13 21:36:00,
2013-09-13 17:41:00,63.5,42.8,17.72,SE,146,0.0,4.9,47,0.00,,,0.00,WUHU216WMR968SP,2013-09-13 21:41:00,
2013-09-13 17:46:00,63.9,42.8,17.72,WSW,239,0.0,5.8,46,0.00,,,0.00,WUHU216WMR968SP,2013-09-13 21:46:00,
2013-09-13 17:51:00,64.0,42.8,17.72,West,261,3.1,5.8,46,0.00,,,0.00,WUHU216WMR968SP,2013-09-13 21:51:00,
2013-09-13 17:56:00,64.4,42.8,17.72,NNE,13,2.7,4.9,45,0.00,,,0.00,WUHU216WMR968SP,2013-09-13 21:56:00,
2013-09-13 18:01:00,64.6,42.8,17.72,West,271,3.1,7.6,44,0.00,,,0.00,WUHU216WMR968SP,2013-09-13 22:01:00,
2013-09-13 18:06:00,64.4,42.8,17.72,SE,132,4.0,7.6,44,0.00,,,0.00,WUHU216WMR968SP,2013-09-13 22:06:00,
2013-09-13 18:11:00,64.2,42.8,17.72,NE,44,0.0,5.8,45,0.00,,,0.00,WUHU216WMR968SP,2013-09-13 22:11:00,
2013-09-13 18:16:00,63.7,42.8,17.72,NNE,17,4.5,7.2,44,0.00,,,0.00,WUHU216WMR968SP,2013-09-13 22:16:00,
2013-09-13 18:21:00,63.1,41.0,17.72,NE,35,2.2,7.2,45,0.00,,,0.00,WUHU216WMR968SP,2013-09-13 22:21:00,
2013-09-13 18:26:00,62.6,42.8,17.72,NE,42,2.2,5.4,47,0.00,,,0.00,WUHU216WMR968SP,2013-09-13 22:26:00,
2013-09-13 18:31:00,62.1,42.8,17.72,NE,42,4.9,5.4,47,0.00,,,0.00,WUHU216WMR968SP,2013-09-13 22:31:00,
2013-09-13 18:36:00,61.7,42.8,17.72,SSE,167,2.7,5.8,48,0.00,,,0.00,WUHU216WMR968SP,2013-09-13 22:36:00,
2013-09-13 18:41:00,61.3,41.0,17.72,SE,140,0.0,5.8,49,0.00,,,0.00,WUHU216WMR968SP,2013-09-13 22:41:00,
2013-09-13 18:46:00,61.2,42.8,17.72,East,81,2.7,5.4,50,0.00,,,0.00,WUHU216WMR968SP,2013-09-13 22:46:00,
2013-09-13 18:51:00,61.0,42.8,17.72,SSW,200,0.0,4.5,50,0.00,,,0.00,WUHU216WMR968SP,2013-09-13 22:51:00,
2013-09-13 18:56:00,60.8,42.8,17.72,ENE,57,2.2,4.0,50,0.00,,,0.00,WUHU216WMR968SP,2013-09-13 22:56:00,
2013-09-13 19:01:00,60.6,42.8,17.72,WNW,294,2.2,4.0,50,0.00,,,0.00,WUHU216WMR968SP,2013-09-13 23:01:00,
2013-09-13 19:06:00,60.6,42.8,17.72,East,92,0.0,3.6,51,0.00,,,0.00,WUHU216WMR968SP,2013-09-13 23:06:00,
2013-09-13 19:11:00,60.4,42.8,17.72,SW,217,0.0,3.6,51,0.00,,,0.00,WUHU216WMR968SP,2013-09-13 23:11:00,
2013-09-13 19:16:00,60.3,42.8,17.72,North,9,0.0,5.4,51,0.00,,,0.00,WUHU216WMR968SP,2013-09-13 23:16:00,
2013-09-13 19:21:00,60.1,42.8,17.72,NNE,24,0.0,6.3,51,0.00,,,0.00,WUHU216WMR968SP,2013-09-13 23:21:00,
2013-09-13 19:26:00,60.1,42.8,17.72,East,86,0.0,6.3,51,0.00,,,0.00,WUHU216WMR968SP,2013-09-13 23:26:00,
2013-09-13 19:31:00,59.9,42.8,17.72,East,92,0.0,7.2,51,0.00,,,0.00,WUHU216WMR968SP,2013-09-13 23:31:00,
2013-09-13 19:36:00,59.9,42.8,17.72,NNW,341,2.7,7.2,52,0.00,,,0.00,WUHU216WMR968SP,2013-09-13 23:36:00,
2013-09-13 19:41:00,59.5,41.0,17.72,NNE,17,0.0,5.4,51,0.00,,,0.00,WUHU216WMR968SP,2013-09-13 23:41:00,
2013-09-13 19:46:00,59.4,41.0,17.72,NNW,343,2.7,5.4,51,0.00,,,0.00,WUHU216WMR968SP,2013-09-13 23:46:00,
2013-09-13 19:51:00,59.2,41.0,17.72,SE,129,2.2,5.4,52,0.00,,,0.00,WUHU216WMR968SP,2013-09-13 23:51:00,
2013-09-13 19:56:00,59.2,41.0,17.72,ENE,72,0.0,5.8,52,0.00,,,0.00,WUHU216WMR968SP,2013-09-13 23:56:00,
2013-09-13 20:01:00,59.2,41.0,17.72,North,3,2.7,5.8,52,0.00,,,0.00,WUHU216WMR968SP,2013-09-14 00:01:00,
2013-09-13 20:06:00,59.2,41.0,17.72,NNW,327,2.2,5.4,52,0.00,,,0.00,WUHU216WMR968SP,2013-09-14 00:06:00,
2013-09-13 20:11:00,59.2,41.0,17.72,East,85,2.2,5.8,51,0.00,,,0.00,WUHU216WMR968SP,2013-09-14 00:11:00,
2013-09-13 20:16:00,59.2,41.0,17.72,SSW,206,3.1,5.8,51,0.00,,,0.00,WUHU216WMR968SP,2013-09-14 00:16:00,
2013-09-13 20:21:00,59.0,41.0,17.72,North,0,2.7,5.8,51,0.00,,,0.00,WUHU216WMR968SP,2013-09-14 00:21:00,
2013-09-13 20:26:00,59.0,41.0,17.72,East,81,0.0,5.8,52,0.00,,,0.00,WUHU216WMR968SP,2013-09-14 00:26:00,
2013-09-13 20:31:00,59.2,41.0,17.72,NE,37,2.7,5.8,51,0.00,,,0.00,WUHU216WMR968SP,2013-09-14 00:31:00,
2013-09-13 20:36:00,59.0,41.0,17.72,North,0,0.0,5.8,51,0.00,,,0.00,WUHU216WMR968SP,2013-09-14 00:36:00,
2013-09-13 20:41:00,59.0,41.0,17.72,South,182,0.0,5.4,51,0.00,,,0.00,WUHU216WMR968SP,2013-09-14 00:41:00,
2013-09-13 20:46:00,58.8,41.0,17.72,ENE,68,0.0,4.9,52,0.00,,,0.00,WUHU216WMR968SP,2013-09-14 00:46:00,
2013-09-13 20:51:00,58.8,41.0,17.72,SE,134,3.6,5.4,51,0.00,,,0.00,WUHU216WMR968SP,2013-09-14 00:51:00,
2013-09-13 20:56:00,58.8,41.0,17.72,South,191,2.2,5.4,51,0.00,,,0.00,WUHU216WMR968SP,2013-09-14 00:56:00,
2013-09-13 21:01:00,58.5,41.0,17.72,SSW,210,0.0,5.8,52,0.00,,,0.00,WUHU216WMR968SP,2013-09-14 01:01:00,
2013-09-13 21:06:00,58.5,41.0,17.72,SE,143,0.0,5.8,52,0.00,,,0.00,WUHU216WMR968SP,2013-09-14 01:06:00,
2013-09-13 21:11:00,58.3,41.0,17.72,ENE,63,2.2,5.8,52,0.00,,,0.00,WUHU216WMR968SP,2013-09-14 01:11:00,
2013-09-13 21:16:00,58.1,41.0,17.72,SSW,208,3.6,7.2,52,0.00,,,0.00,WUHU216WMR968SP,2013-09-14 01:16:00,
2013-09-13 21:21:00,58.1,41.0,17.72,SSE,152,2.2,7.6,52,0.00,,,0.00,WUHU216WMR968SP,2013-09-14 01:21:00,
2013-09-13 21:26:00,57.9,39.2,17.72,North,11,2.2,7.6,52,0.00,,,0.00,WUHU216WMR968SP,2013-09-14 01:26:00,
2013-09-13 21:31:00,57.9,39.2,17.72,North,353,0.0,5.8,52,0.00,,,0.00,WUHU216WMR968SP,2013-09-14 01:31:00,
2013-09-13 21:36:00,57.9,41.0,17.72,WNW,295,2.7,4.5,53,0.00,,,0.00,WUHU216WMR968SP,2013-09-14 01:36:00,
2013-09-13 21:41:00,57.7,41.0,17.72,NE,52,3.1,4.9,53,0.00,,,0.00,WUHU216WMR968SP,2013-09-14 01:41:00,
2013-09-13 21:46:00,57.7,39.2,17.72,NNW,337,3.1,6.3,52,0.00,,,0.00,WUHU216WMR968SP,2013-09-14 01:46:00,
2013-09-13 21:51:00,57.7,39.2,17.72,SSE,162,2.7,6.3,52,0.00,,,0.00,WUHU216WMR968SP,2013-09-14 01:51:00,
2013-09-13 21:56:00,57.7,39.2,17.72,ENE,77,0.0,6.3,52,0.00,,,0.00,WUHU216WMR968SP,2013-09-14 01:56:00,
2013-09-13 22:01:00,57.7,39.2,17.72,NE,54,2.2,6.3,52,0.00,,,0.00,WUHU216WMR968SP,2013-09-14 02:01:00,
2013-09-13 22:06:00,57.9,39.2,17.72,SW,235,2.2,6.3,52,0.00,,,0.00,WUHU216WMR968SP,2013-09-14 02:06:00,
2013-09-13 22:11:00,57.9,39.2,17.72,NE,54,2.7,6.3,51,0.00,,,0.00,WUHU216WMR968SP,2013-09-14 02:11:00,
2013-09-13 22:16:00,57.9,39.2,17.72,NE,46,0.0,6.3,52,0.00,,,0.00,WUHU216WMR968SP,2013-09-14 02:16:00,
2013-09-13 22:21:00,57.7,39.2,17.72,SSW,201,2.7,6.7,52,0.00,,,0.00,WUHU216WMR968SP,2013-09-14 02:21:00,
2013-09-13 22:26:00,57.7,39.2,17.72,South,190,0.0,6.7,52,0.00,,,0.00,WUHU216WMR968SP,2013-09-14 02:26:00,
2013-09-13 22:31:00,57.6,39.2,17.72,East,85,0.0,5.4,52,0.00,,,0.00,WUHU216WMR968SP,2013-09-14 02:31:00,
2013-09-13 22:36:00,57.4,39.2,17.72,NE,55,0.0,4.0,52,0.00,,,0.00,WUHU216WMR968SP,2013-09-14 02:36:00,
2013-09-13 22:41:00,57.6,39.2,17.72,East,98,0.0,5.4,52,0.00,,,0.00,WUHU216WMR968SP,2013-09-14 02:41:00,
2013-09-13 22:46:00,57.6,39.2,17.72,East,89,0.0,5.4,52,0.00,,,0.00,WUHU216WMR968SP,2013-09-14 02:46:00,
2013-09-13 22:51:00,57.6,39.2,17.72,NE,42,0.0,5.4,52,0.00,,,0.00,WUHU216WMR968SP,2013-09-14 02:51:00,
2013-09-13 22:56:00,57.7,39.2,17.72,ENE,63,0.0,5.4,51,0.00,,,0.00,WUHU216WMR968SP,2013-09-14 02:56:00,
2013-09-13 23:01:00,57.7,39.2,17.72,SSE,164,2.7,7.2,51,0.00,,,0.00,WUHU216WMR968SP,2013-09-14 03:01:00,
2013-09-13 23:06:00,57.9,39.2,17.72,East,83,2.7,7.2,51,0.00,,,0.00,WUHU216WMR968SP,2013-09-14 03:06:00,
2013-09-13 23:11:00,57.7,39.2,17.72,West,262,0.0,5.4,51,0.00,,,0.00,WUHU216WMR968SP,2013-09-14 03:11:00,
2013-09-13 23:16:00,57.7,39.2,17.72,SW,218,2.7,4.9,51,0.00,,,0.00,WUHU216WMR968SP,2013-09-14 03:16:00,
2013-09-13 23:21:00,57.7,39.2,17.72,ENE,68,0.0,4.0,51,0.00,,,0.00,WUHU216WMR968SP,2013-09-14 03:21:00,
2013-09-13 23:26:00,57.7,39.2,17.72,SSW,201,3.1,4.0,51,0.00,,,0.00,WUHU216WMR968SP,2013-09-14 03:26:00,
2013-09-13 23:31:00,57.7,39.2,17.72,ENE,73,2.2,5.8,51,0.00,,,0.00,WUHU216WMR968SP,2013-09-14 03:31:00,
2013-09-13 23:36:00,57.7,39.2,17.72,South,177,2.2,5.8,50,0.00,,,0.00,WUHU216WMR968SP,2013-09-14 03:36:00,
2013-09-13 23:41:00,57.9,39.2,17.72,SSE,156,2.7,8.1,50,0.00,,,0.00,WUHU216WMR968SP,2013-09-14 03:41:00,
2013-09-13 23:46:00,57.9,39.2,17.72,SSE,148,0.0,8.1,50,0.00,,,0.00,WUHU216WMR968SP,2013-09-14 03:46:00,
2013-09-13 23:51:00,57.9,39.2,17.72,South,172,2.2,4.9,50,0.00,,,0.00,WUHU216WMR968SP,2013-09-14 03:51:00,
2013-09-13 23:56:00,57.7,39.2,17.72,ENE,66,2.7,5.4,50,0.00,,,0.00,WUHU216WMR968SP,2013-09-14 03:56:00,